Tracking 20712 objects as of 27-May-2020
HD Live streaming from Space Station
objects crossing your sky now

CHINASAT 7

Track CHINASAT 7 now!
CHINASAT 7 is classified as:


NORAD ID: 24282
Int'l Code: 1996-048A
Perigee: 21,969.8 km
Apogee: 46,217.1 km
Inclination: 20.9 °
Period: 1,350.1 minutes
Semi major axis: 40464 km
RCS: 1 m2 (large)
Launch date: August 18, 1996
Source: People's Republic of China (PRC)
Launch site: Xichang Space Center, China (XSC)
aabbcc
Your satellite tracking list
Your tracking list is empty




NASA's NSSDC Master Catalog

Two Line Element Set (TLE):
1 24282U 96048A   20148.15345213 -.00000084 +00000-0 +00000-0 0  9997
2 24282 020.8880 250.1031 2996128 172.0377 195.6758 01.06657766095124
Source of the keplerian elements: AFSPC